User: anonymous   Login
Location: Bretagne
(43.8474°N, 0.4650°W)
Time: 09:31:32
(UTC+00:00)
Language:

Cosmos 1603 - Orbit

View from above orbital plane
View from above orbital plane
View from above satellite
View from above satellite

Ground track
Ground track

The orbit is defined by the following mean orbital elements,

1 15333U          26072.88701376 +.00000000 +00000-0 +80747-4 0 00005
2 15333  71.0237 247.5642 0018514  21.6502 338.5399 14.14501731    09
Epoch (UTC): 13 March 2026 21:17:17
Eccentricity: 0.0018514
inclination: 71.0237°
perigee height: 831 km
apogee height: 857 km
right ascension of ascending node: 247.5642°
argument of perigee: 21.6502°
revolutions per day: 14.14501731
mean anomaly at epoch: 338.5399°

The dashed part of the orbit path shows where the satellite is in the earth's shadow,  

DLR